Theta_e
324 323 322 321 321 320 319 320 320 320 321 323 327 328 332 334 335 335 338 334 335 336 336 338 339 340 340 341 340 340 341 342 342 341 340 339 338 338 339 338 338 338 338
319 318 317 316 315 316 316 316 316 317 317 320 320 322 322 325 330 333 333 336 332 333 335 336 337 336 337 338 339 339 340 341 341 341 339 338 337 336 336 337 337 338 338
315 315 314 314 314 314 315 315 315 315 314 315 316 317 318 319 320 323 327 331 332 327 322 327 329 331 334 335 336 338 338 339 340 340 339 338 337 336 335 335 336 337 337
314 314 312 312 313 313 313 312 312 312 312 313 315 313 314 315 315 319 320 322 324 319 316 316 316 321 325 328 332 335 337 338 338 339 339 338 337 336 335 334 335 335 336
312 312 311 311 312 311 311 310 310 311 310 311 310 310 312 313 315 314 318 324 324 321 320 312 311 312 317 320 323 328 331 335 335 338 339 338 338 336 335 334 334 334 334
310 311 310 310 310 309 309 309 309 310 310 309 308 310 314 314 315 318 324 320 318 317 315 313 313 310 311 315 316 319 322 327 330 330 330 339 338 336 333 331 333 334 334
309 309 309 309 309 308 308 308 307 307 308 308 308 307 312 317 318 318 320 317 315 314 313 313 311 309 309 312 311 313 315 316 318 320 321 324 335 333 330 330 329 330 331
307 306 307 307 307 306 306 306 306 305 306 307 302 306 306 311 311 314 316 315 313 313 312 311 309 308 308 309 307 307 307 308 310 313 316 317 320 327 331 330 330 331 333
305 306 306 306 306 306 304 303 303 303 302 305 305 302 300 301 302 310 311 311 311 307 308 309 308 309 308 307 307 305 301 301 304 307 311 313 315 316 319 329 332 332 333
304 304 304 304 304 303 302 302 302 302 302 300 303 303 304 302 298 298 305 306 305 305 305 305 307 308 308 308 307 302 299 298 300 303 306 308 311 314 315 318 325 332 332
302 302 302 301 301 300 300 300 300 300 300 299 299 299 300 302 302 297 297 299 302 303 305 305 304 304 302 302 302 299 298 297 298 300 302 304 306 309 313 314 317 321 324
300 299 299 299 299 298 298 298 298 298 298 298 298 298 296 295 295 295 294 296 296 300 303 303 301 300 300 300 299 297 296 298 297 298 301 302 304 305 308 312 314 317 319
297 296 298 297 296 295 296 296 296 296 296 296 296 296 297 296 296 295 294 292 292 298 302 302 301 300 299 299 298 295 296 297 296 298 300 302 303 304 306 309 310 313 314
294 295 295 295 294 294 295 296 295 295 296 296 295 295 295 295 295 295 292 291 290 294 298 299 299 299 298 298 296 296 297 295 296 296 299 300 302 302 302 304 306 308 310
293 294 295 294 293 293 293 294 293 293 294 294 294 294 293 294 294 294 293 293 290 287 289 295 293 297 296 296 295 296 296 296 294 294 297 297 298 299 299 300 301 303 304
293 293 293 292 291 291 292 292 292 291 292 292 291 291 291 291 292 293 292 292 292 290 286 291 292 294 294 293 294 295 295 296 293 292 294 295 295 296 296 296 297 299 300
293 292 291 290 290 290 290 291 289 290 289 290 291 290 289 290 291 291 291 291 290 290 286 289 292 293 292 291 291 294 293 293 292 292 293 293 293 293 293 294 294 295 296
292 291 291 290 289 289 290 289 288 288 288 288 288 288 287 288 289 289 289 289 289 289 287 286 289 290 290 290 290 291 291 292 291 292 292 291 291 290 291 291 292 292 293
291 290 290 289 288 288 288 288 288 287 287 287 287 286 285 285 285 286 286 287 286 287 288 286 286 289 288 287 287 289 289 291 290 291 290 290 289 289 288 289 289 290 291
291 290 289 288 288 287 287 287 287 287 286 286 286 285 283 281 280 281 283 284 283 284 286 285 285 284 285 285 285 284 285 288 287 288 290 290 289 288 287 287 287 287 288
290 290 289 288 288 286 285 286 286 286 285 285 285 284 282 280 277 277 279 279 280 280 282 282 282 281 280 279 279 282 283 285 286 284 285 289 289 287 287 285 285 286 286
289 289 288 288 286 282 280 281 284 285 284 283 282 283 283 280 279 276 276 276 277 276 278 279 279 276 277 276 277 279 281 281 280 283 282 287 288 286 285 285 285 284 285
287 285 285 285 283 281 279 279 282 284 282 281 280 281 281 280 278 278 277 276 276 276 276 278 275 274 274 274 276 278 279 281 280 279 280 283 284 285 286 284 284 284 283
284 284 283 284 282 280 278 277 279 282 281 280 280 279 279 278 276 276 276 276 276 276 275 276 275 275 275 276 276 279 280 283 285 280 278 278 282 282 286 285 283 284 282
283 282 282 281 281 279 277 276 278 281 280 279 279 277 277 276 275 275 275 274 275 274 276 275 275 276 276 276 277 277 277 279 279 277 277 276 280 281 285 283 283 282 282
282 282 281 282 281 279 276 276 279 281 279 279 279 278 275 274 274 274 274 275 272 273 275 276 278 278 278 277 277 277 276 274 276 276 275 274 279 281 280 284 283 282 284
Wind_Speed
3 4 4 4 4 5 5 6 6 7 9 9 8 9 10 10 10 6 8 7 6 7 7 7 9 10 11 11 12 13 14 16 18 20 20 19 20 19 19 19 18 18 17
5 4 4 5 5 6 7 6 7 7 8 8 9 9 9 9 10 8 5 6 3 5 9 10 10 11 13 16 13 13 12 13 16 19 19 13 20 19 20 20 20 19 19
6 5 5 5 6 6 7 7 8 8 8 8 10 9 9 9 8 9 8 6 5 10 24 23 21 17 13 14 16 13 11 12 13 15 18 21 23 25 21 21 21 21 21
7 5 5 6 6 6 7 8 8 8 8 8 8 9 9 9 10 9 9 6 9 6 11 18 22 20 17 18 14 13 15 10 11 13 13 20 27 26 22 20 21 21 23
7 5 5 6 6 5 6 7 8 7 8 8 9 10 10 9 9 7 7 5 10 8 5 12 15 18 19 20 20 20 19 15 12 15 18 18 21 18 11 12 17 21 23
6 4 5 6 5 6 6 8 8 8 8 9 10 9 7 7 6 5 7 6 7 6 7 8 6 8 14 16 19 21 23 24 23 22 24 17 21 21 19 15 10 19 24
6 6 5 6 6 6 8 9 8 9 6 10 9 10 7 4 5 7 4 4 4 4 6 5 5 5 5 11 16 20 22 22 24 24 25 25 11 18 17 21 21 21 27
8 7 6 6 7 4 7 8 9 7 5 8 8 9 4 2 6 2 4 3 5 6 4 4 4 6 5 4 9 16 20 23 24 23 23 23 21 14 19 20 21 19 21
7 6 6 6 6 6 6 7 8 9 7 6 8 7 6 6 10 5 1 4 7 8 8 7 8 5 4 3 5 10 21 23 24 23 22 21 21 20 20 12 18 20 17
6 6 6 7 6 5 6 6 7 7 7 6 5 6 5 4 5 6 7 6 9 6 8 7 6 7 9 10 9 16 23 23 24 22 21 20 19 18 18 18 16 15 15
7 6 7 7 6 5 6 7 7 8 6 7 6 6 6 3 1 6 7 7 7 6 5 6 8 8 12 10 9 15 22 21 21 22 22 21 19 17 17 16 16 11 11
5 6 6 6 6 5 6 5 6 7 7 6 6 5 5 5 6 6 9 10 10 7 4 6 7 8 8 9 11 19 21 18 18 22 24 22 20 18 16 14 16 13 11
4 5 5 6 5 5 5 4 5 5 6 6 7 5 4 4 6 6 7 8 9 8 2 6 6 8 9 9 11 20 18 13 18 21 25 18 16 16 16 16 14 15 8
4 5 5 5 5 4 5 5 5 4 5 5 6 6 6 5 5 6 5 8 9 8 4 5 7 8 9 9 13 19 12 18 18 21 22 18 16 14 15 15 15 14 15
5 5 5 5 5 5 5 4 5 5 4 4 4 6 6 5 4 5 6 6 7 6 9 8 9 10 9 9 13 13 12 15 19 22 19 19 19 17 17 17 17 17 18
6 5 5 5 4 4 5 4 3 5 5 4 4 6 7 6 6 5 6 6 6 7 6 10 9 11 11 10 13 13 13 15 20 22 18 18 21 20 19 19 19 19 19
5 5 5 5 5 4 5 5 4 4 4 5 6 6 7 7 6 5 5 5 6 7 8 9 9 10 11 12 12 11 11 9 10 19 20 21 22 23 22 23 22 21 20
5 5 5 5 4 4 5 5 5 5 5 6 6 7 8 7 8 8 7 7 7 8 8 11 10 8 10 12 13 12 9 7 7 16 18 21 22 24 26 26 24 23 23
6 6 5 5 5 4 4 4 5 5 6 7 6 8 9 10 9 9 8 7 8 8 8 8 8 8 9 11 11 10 9 8 7 10 10 15 20 23 24 26 27 28 27
7 6 6 6 5 5 4 3 5 5 5 7 7 8 10 10 10 11 10 9 9 9 8 7 7 8 9 11 10 10 7 7 7 7 8 8 12 19 24 24 26 27 28
6 6 6 6 6 5 6 7 5 6 6 7 7 8 9 9 9 10 8 10 11 9 8 8 7 8 8 10 10 10 8 8 5 10 9 7 6 8 11 18 20 26 26
7 5 6 6 7 7 7 10 10 6 7 8 7 7 8 11 7 7 9 10 11 10 10 8 7 8 10 10 11 10 7 8 6 10 9 4 6 7 8 10 22 24 25
9 8 6 8 9 8 7 8 10 8 8 7 8 7 7 7 9 7 4 3 8 12 12 9 9 8 9 11 12 11 10 6 4 9 10 4 8 4 6 9 20 23 23
7 7 7 4 8 7 6 5 5 6 6 7 8 7 7 8 9 7 6 5 5 7 8 7 8 7 8 11 12 10 11 7 5 10 11 5 7 6 3 7 21 20 24
8 7 6 6 7 7 4 2 4 5 5 6 6 9 8 8 11 9 4 4 5 6 4 3 4 6 9 14 15 9 10 8 5 7 9 6 6 6 2 6 9 20 21
8 7 7 5 9 7 5 3 3 3 4 4 4 6 11 9 11 10 6 4 4 6 6 6 5 7 8 10 15 11 9 9 8 5 9 8 8 7 4 7 8 9 8
Wind_Direction
44 25 31 14 12 358 357 341 338 333 323 320 326 312 309 311 298 277 300 53 35 344 324 287 272 276 280 281 282 274 253 243 236 228 224 217 219 209 207 202 199 198 196
20 38 31 22 13 1 345 338 345 325 325 312 308 307 310 301 298 298 297 296 219 245 270 288 289 272 274 273 263 268 272 258 246 237 232 227 246 218 211 206 202 200 198
51 15 35 18 12 355 345 347 336 333 323 320 312 312 304 292 294 297 297 284 263 83 52 47 30 22 355 315 291 280 280 283 273 256 231 217 232 236 214 210 209 204 202
34 41 39 30 1 3 360 350 343 335 330 325 324 315 310 298 290 289 272 283 81 81 68 56 48 37 34 27 357 315 290 273 283 272 253 234 227 226 218 212 214 208 207
45 38 37 29 359 15 14 354 343 339 329 327 317 312 300 293 295 299 310 27 46 33 57 71 69 48 29 36 29 22 13 2 342 309 267 248 229 215 196 223 232 223 215
57 37 57 34 10 18 10 358 349 346 326 340 318 296 294 298 290 284 78 36 40 39 46 43 50 62 45 33 32 26 21 17 12 12 1 279 233 201 194 205 240 254 235
72 48 43 36 16 36 11 8 351 349 358 355 319 329 290 178 29 331 56 61 21 41 29 35 41 46 38 52 28 27 19 13 4 7 4 354 277 212 218 211 205 248 268
57 62 46 40 25 29 35 19 5 354 7 18 351 301 344 165 25 99 4 17 28 351 8 52 23 41 38 22 41 28 18 8 359 356 359 2 359 342 224 230 223 229 259
69 62 59 54 30 21 24 24 15 16 347 22 27 2 335 353 340 72 277 6 14 350 324 336 347 6 98 52 8 31 14 4 351 348 347 352 351 354 348 280 221 232 226
77 69 62 58 53 42 25 16 22 2 6 11 11 12 8 321 337 322 343 20 345 4 7 335 356 8 13 11 30 42 10 357 347 344 337 339 341 340 339 339 331 238 232
81 69 58 53 48 45 37 20 21 16 17 2 13 3 358 304 301 305 310 342 350 23 10 30 10 20 14 2 349 14 353 347 348 341 336 329 328 328 327 326 328 323 333
104 75 72 64 48 44 30 28 27 26 19 21 357 9 10 353 352 333 327 328 326 353 324 52 22 31 6 1 6 6 345 330 350 345 332 323 321 318 317 313 315 328 334
109 83 79 69 58 43 40 28 37 35 34 29 13 353 13 10 345 334 323 334 318 304 335 84 24 30 8 3 12 0 332 15 2 357 345 332 323 324 328 325 314 305 323
100 102 92 83 74 52 44 23 38 34 22 19 15 6 338 10 353 343 342 323 328 319 331 54 13 25 9 1 30 346 345 26 20 4 356 359 360 1 353 348 340 333 320
124 110 102 89 65 62 49 40 49 10 16 19 3 9 348 356 356 339 328 329 330 323 322 12 347 6 0 355 27 348 354 17 31 13 5 17 17 20 11 8 9 7 352
122 138 109 96 93 67 58 46 41 36 13 28 10 21 358 356 338 348 331 325 317 321 308 330 338 344 356 358 7 360 6 39 31 13 21 27 29 30 26 23 20 16 12
149 122 109 104 77 79 61 64 57 38 34 31 22 24 5 347 352 354 334 324 326 329 316 320 329 339 347 4 354 4 12 36 26 11 30 34 34 32 35 32 27 25 22
145 126 120 112 125 83 68 66 54 40 33 42 25 22 13 356 354 356 337 343 322 329 324 315 329 342 354 12 349 9 11 29 42 28 42 40 38 35 32 31 30 27 23
141 131 129 132 109 90 91 79 86 65 47 44 28 35 22 6 3 356 333 352 342 331 317 324 323 360 2 10 348 5 5 13 33 37 44 48 45 39 34 31 30 26 25
148 140 133 119 110 101 92 91 87 74 61 59 42 49 37 23 9 2 338 3 355 338 336 337 338 357 13 1 354 348 0 19 24 13 16 53 51 43 39 32 29 28 25
147 139 129 118 98 73 31 356 85 70 50 54 51 48 55 40 37 22 0 3 3 353 358 347 5 5 9 2 351 338 7 350 70 26 349 27 31 48 35 37 30 28 28
139 134 127 122 99 73 39 18 357 80 63 48 36 30 43 37 28 70 36 29 19 11 8 2 11 9 6 360 342 337 359 343 6 30 343 13 357 46 54 31 35 30 28
121 116 55 85 78 89 63 46 29 61 74 56 46 25 28 39 19 2 53 28 50 28 21 9 18 19 4 353 340 338 344 335 42 25 344 33 5 16 54 45 27 33 26
118 111 125 116 109 101 98 81 72 94 90 70 58 31 32 34 27 5 16 16 40 53 26 19 28 18 6 358 346 333 327 323 128 59 4 351 3 341 336 49 34 21 27
139 137 141 142 128 110 125 128 282 133 109 92 76 53 31 38 25 12 31 33 32 29 69 28 20 25 23 21 14 5 2 17 24 62 23 314 353 332 353 63 35 17 32
139 147 148 142 121 122 113 111 333 125 129 120 104 95 56 43 34 32 26 18 50 47 9 24 30 38 33 34 36 26 14 21 10 18 13 331 356 352 317 37 43 12 15